Other Surface Observations
Issued by NWS Jacksonville, FL

Home | Current Version | Previous Version | Text Only | Print | Product List | Glossary On
Versions: 1 2 3 4 5 6 7 8 9 10 11 12 13 14 15 16 17 18 19 20 21 22 23 24 25 26 27 28 29 30 31 32 33 34 35 36 37 38 39 40 41 42 43 44 45 46 47 48 49 50
000
SXUS52 KJAX 232014
OSOJAX
OTHER SURFACE OBSERVATIONS
NATIONAL WEATHER SERVICE JACKSONVILLE FL
400 PM EDT SAT SEP 23 2017

FLZ020>025-030>033-035>038-040-232100-
...FLORIDA...

CITY           SKY/WX    TMP DP  RH WIND       PRES   REMARKS
CECIL FIELD    MOSUNNY   84  70  61 E10G18    29.93F
HERLONG FIELD  NOT AVBL
FERNANDINA BCH NOT AVBL
LAKE CITY      MOCLDY    82  72  69 N7        29.92F
JUNIPER SPGS   NOT AVBL
BUNNELL        NOT AVBL
KEYSTONE HGTS  FAIR      88  66  48 E14       29.92F
$$

GAZ132>136-149>154-162>166-232100-
...GEORGIA...

CITY           SKY/WX    TMP DP  RH WIND       PRES   REMARKS
JESUP          NOT AVBL
HOMERVILLE     FAIR      88  68  51 E9        29.95F
SWAINSBORO     MOCLDY    86  68  54 E5        30.00F
CORDELE        NOT AVBL
EASTMAN        FAIR      90  50  25 E13       30.00F
$$

PLEASE NOTE:  THESE OBSERVATIONS ARE NOT QUALITY CONTROLLED AND MAY
NOT BE AVAILABLE AT ALL TIMES.
$$



USA.gov is the U.S. government's official web portal to all federal, state and local government web resources and services.